sat.trackr.live / text

‹ back to catalog

STARLINK-31050

NORAD 58546 · 2023-192R

PAYLOAD ACTIVE UNKNOWN

§ Identity

Operator
Country
US
Launch date
2023-12-08
Launch site
AFWTR
Launch vehicle
Mass (kg)
RCS (m²)

Purposes: comms

External: N2YO · Heavens-Above · Gunter

§ Orbital elements

Epoch: 2026-09-20T22:15:41.950368Z

Period
93.85 min
Inclination
53.1578°
Eccentricity
0.0001739
Mean motion
15.34392867 rev/d
Perigee alt
461.5 km
Apogee alt
463.9 km
Semi-major
6,840.9 km
B*
-3.2993e-5
RAAN
231.8758°
Arg perigee
87.1478°
Mean anomaly
272.9723°
Rev number
15,593

§ Raw data

STARLINK-310501 58546U 23192R   26263.92756887 -.00001491  00000+0 -32993-4 0  99922 58546  53.1578 231.8758 0001739  87.1478 272.9723 15.34392867155931

JSON: /api/v1/satellites/58546 · /tle

For live sub-satellite position, see the globe view (requires WebGL).

§ Visibility from observer

Set your observer location to see the next 7 days of passes ≥ 10°. The values pass through the URL so the page stays shareable.

No JS? Fill the form by hand. The geolocation button needs JavaScript.